Creston, IA

4:50 PM CDT on August 24, 2016 (GMT -0500)
Creston Municipal

Weather History for KCSQ - July, 2014

Change the Weather History Date:

Saturday, July 26, 2014

  Actual Average Record
Temperature  
Mean Temperature 76 °F -  
Max Temperature 84 °F 85 °F 102 °F (1956)
Min Temperature 69 °F 64 °F 48 °F (1962)
Cooling Degree Days 12    
Growing Degree Days 26 (Base 50)    
Moisture  
Dew Point 72 °F    
Average Humidity 91    
Maximum Humidity 100    
Minimum Humidity 70    
Precipitation  
Precipitation 0.00 in - - ()
Sea Level Pressure  
Sea Level Pressure 29.84 in    
Wind  
Wind Speed 6 mph (ENE)    
Max Wind Speed 15 mph    
Max Gust Speed 18 mph    
Visibility 7 miles    
Events Fog    
Averages and records for this station are not official NWS values.
T = Trace of Precipitation, MM = Missing Value Source: NWS Daily Summary

Daily Weather History Graph

Daily Weather History Graph

Search for Another Location

Airport or City:

Trip Planner

Search our weather history database for the weather conditions in past years. The results will help you decide how hot, cold, wet, or windy it might be!

Date:

Astronomy

Jul. 26, 2014 Rise Set
Actual Time 6:07 AM CDT 8:39 PM CDT
Civil Twilight 5:36 AM CDT 9:11 PM CDT
Nautical Twilight 4:56 AM CDT 9:50 PM CDT
Astronomical Twilight 4:12 AM CDT 10:34 PM CDT
Moon 6:01 AM CDT (7/26) 8:14 PM CDT (7/26)
Length of Visible Light 15h 34m
Length of Day
14h 31m
Waning Crescent, 0% of the Moon is Illuminated
Jul 26
Waning Crescent
Jul 26
New
Aug 3
First Quarter
Aug 10
Full
Aug 17
Last Quarter

Hourly Weather History & Observations

Time (CDT) Temp. Heat Index Dew Point Humidity Pressure Visibility Wind Dir Wind Speed Gust Speed Precip Events Conditions
12:15 AM 71.6 °F - 69.8 °F 94% 29.80 in 10.0 mi ENE 4.6 mph - N/A   Clear
12:35 AM 69.8 °F - 69.8 °F 100% 29.80 in 8.0 mi NE 4.6 mph - N/A   Clear
12:55 AM 69.8 °F - 69.8 °F 100% 29.80 in 8.0 mi NE 4.6 mph - N/A   Clear
1:15 AM 69.8 °F - 69.8 °F 100% 29.80 in 9.0 mi NNE 6.9 mph - N/A   Clear
1:35 AM 69.8 °F - 69.8 °F 100% 29.80 in 8.0 mi NNE 8.1 mph - N/A   Clear
1:55 AM 69.8 °F - 69.8 °F 100% 29.81 in 10.0 mi NNE 6.9 mph - N/A   Clear
2:15 AM 69.8 °F - 69.8 °F 100% 29.81 in 8.0 mi NNE 6.9 mph - N/A   Clear
2:35 AM 69.8 °F - 69.8 °F 100% 29.81 in 6.0 mi NNE 8.1 mph - N/A   Clear
2:55 AM 69.8 °F - 69.8 °F 100% 29.81 in 6.0 mi NE 5.8 mph - N/A   Clear
3:15 AM 69.8 °F - 69.8 °F 100% 29.81 in 4.0 mi NNE 5.8 mph - N/A   Clear
3:35 AM 69.8 °F - 69.8 °F 100% 29.81 in 4.0 mi NNE 5.8 mph - N/A   Clear
3:55 AM 69.8 °F - 69.8 °F 100% 29.81 in 4.0 mi NE 5.8 mph - N/A   Clear
4:15 AM 69.8 °F - 69.8 °F 100% 29.82 in 3.0 mi NE 4.6 mph - N/A   Partly Cloudy
4:35 AM 69.8 °F - 69.8 °F 100% 29.81 in 3.0 mi ENE 3.5 mph - N/A   Partly Cloudy
4:55 AM 69.8 °F - 69.8 °F 100% 29.82 in 2.5 mi NNE 4.6 mph - N/A   Scattered Clouds
5:15 AM 69.8 °F - 69.8 °F 100% 29.84 in 5.0 mi NNE 6.9 mph - N/A   Partly Cloudy
5:35 AM 69.8 °F - 69.8 °F 100% 29.83 in 4.0 mi ENE 5.8 mph - N/A   Scattered Clouds
5:55 AM 69.8 °F - 69.8 °F 100% 29.82 in 2.0 mi ENE 6.9 mph - N/A   Overcast
6:15 AM 69.8 °F - 69.8 °F 100% 29.81 in 0.2 mi East 6.9 mph - N/A Fog Fog
6:35 AM 69.8 °F - 69.8 °F 100% 29.81 in 1.2 mi East 6.9 mph - N/A   Overcast
6:55 AM 69.8 °F - 69.8 °F 100% 29.82 in 0.8 mi ESE 6.9 mph - N/A   Overcast
7:15 AM 69.8 °F - 69.8 °F 100% 29.83 in 0.5 mi ESE 3.5 mph - N/A Fog Fog
7:35 AM 69.8 °F - 69.8 °F 100% 29.84 in 1.0 mi ENE 5.8 mph - N/A   Overcast
7:55 AM 69.8 °F - 69.8 °F 100% 29.85 in 1.8 mi ENE 6.9 mph - N/A   Overcast
8:15 AM 69.8 °F - 69.8 °F 100% 29.84 in 1.5 mi ENE 8.1 mph - N/A   Overcast
8:35 AM 69.8 °F - 69.8 °F 100% 29.84 in 1.0 mi ENE 6.9 mph - N/A   Overcast
8:55 AM 69.8 °F - 69.8 °F 100% 29.84 in 2.5 mi East 8.1 mph - N/A   Overcast
9:15 AM 71.6 °F - 71.6 °F 100% 29.84 in 4.0 mi East 9.2 mph - N/A   Mostly Cloudy
10:35 AM 75.2 °F - 71.6 °F 89% 29.86 in 10.0 mi ENE 10.4 mph - N/A   Partly Cloudy
10:55 AM 77.0 °F - 71.6 °F 83% 29.87 in 10.0 mi NE 9.2 mph - N/A   Mostly Cloudy
11:35 AM 78.8 °F - 71.6 °F 78% 29.87 in 10.0 mi ESE 9.2 mph - N/A   Overcast
1:10 PM 80.6 °F 85.4 °F 73.4 °F 79% 29.85 in 10.0 mi East 10.4 mph - N/A   Overcast
1:35 PM 82.4 °F 88.2 °F 73.4 °F 74% 29.83 in 10.0 mi East 15.0 mph - N/A   Scattered Clouds
1:55 PM 82.4 °F 88.2 °F 73.4 °F 74% 29.85 in 9.0 mi East 12.7 mph 18.4 mph N/A   Clear
2:15 PM 82.4 °F 88.2 °F 73.4 °F 74% 29.84 in 10.0 mi East 9.2 mph 16.1 mph N/A   Clear
2:35 PM 84.2 °F 92.3 °F 75.2 °F 74% 29.85 in 9.0 mi ENE 12.7 mph - N/A   Partly Cloudy
2:55 PM 82.4 °F 88.2 °F 73.4 °F 74% 29.86 in 10.0 mi ENE 10.4 mph - N/A   Partly Cloudy
3:10 PM 84.2 °F 90.9 °F 73.4 °F 70% 29.87 in 9.0 mi ENE 8.1 mph 15.0 mph N/A   Clear
3:35 PM 84.2 °F 90.9 °F 73.4 °F 70% 29.88 in 10.0 mi ENE 5.8 mph - N/A   Mostly Cloudy
3:55 PM 82.4 °F 89.5 °F 75.2 °F 79% 29.87 in 8.0 mi SE 6.9 mph - N/A   Overcast
4:15 PM 82.4 °F 89.5 °F 75.2 °F 79% 29.86 in 10.0 mi SSE 6.9 mph - N/A   Overcast
4:35 PM 80.6 °F 86.2 °F 75.2 °F 84% 29.85 in 10.0 mi SSE 8.1 mph 13.8 mph N/A   Mostly Cloudy
4:55 PM 80.6 °F 86.2 °F 75.2 °F 84% 29.84 in 10.0 mi SE 8.1 mph - N/A   Partly Cloudy
5:15 PM 80.6 °F 86.2 °F 75.2 °F 84% 29.84 in 9.0 mi SE 9.2 mph - N/A   Clear
5:35 PM 80.6 °F 86.2 °F 75.2 °F 84% 29.83 in 10.0 mi ESE 8.1 mph - N/A   Clear
5:55 PM 80.6 °F 87.1 °F 77.0 °F 89% 29.82 in 9.0 mi ESE 8.1 mph - N/A   Clear
6:15 PM 82.4 °F 89.5 °F 75.2 °F 79% 29.85 in 9.0 mi Calm Calm - N/A   Clear
6:35 PM 82.4 °F 89.5 °F 75.2 °F 79% 29.84 in 9.0 mi ESE 4.6 mph - N/A   Partly Cloudy
6:55 PM 80.6 °F 86.2 °F 75.2 °F 84% 29.84 in 8.0 mi SSE 5.8 mph - N/A   Clear
7:15 PM 80.6 °F 86.2 °F 75.2 °F 84% 29.84 in 9.0 mi SSE 4.6 mph - N/A   Clear
7:35 PM 80.6 °F 86.2 °F 75.2 °F 84% 29.85 in 9.0 mi Calm Calm - N/A   Scattered Clouds
7:50 PM 80.6 °F 86.2 °F 75.2 °F 84% 29.85 in 9.0 mi Calm Calm - N/A   Mostly Cloudy
8:15 PM 80.6 °F 87.1 °F 77.0 °F 89% 29.86 in 9.0 mi Calm Calm - N/A   Overcast
8:30 PM 78.8 °F - 77.0 °F 94% 29.86 in 8.0 mi Calm Calm - N/A   Overcast
8:55 PM 78.8 °F - 75.2 °F 89% 29.87 in 8.0 mi NE 5.8 mph - N/A   Overcast
9:15 PM 78.8 °F - 75.2 °F 89% 29.88 in 10.0 mi NNE 6.9 mph - N/A   Mostly Cloudy
9:35 PM 77.0 °F - 73.4 °F 89% 29.88 in 10.0 mi NE 5.8 mph - N/A   Partly Cloudy
9:55 PM 75.2 °F - 73.4 °F 94% 29.89 in 10.0 mi NE 5.8 mph - N/A   Scattered Clouds
10:15 PM 77.0 °F - 73.4 °F 89% 29.90 in 10.0 mi North 9.2 mph - N/A   Mostly Cloudy
10:35 PM 77.0 °F - 73.4 °F 89% 29.90 in 10.0 mi NNE 5.8 mph 11.5 mph N/A   Mostly Cloudy
10:55 PM 75.2 °F - 73.4 °F 94% 29.90 in 10.0 mi NNE 6.9 mph - N/A   Mostly Cloudy
11:15 PM 75.2 °F - 73.4 °F 94% 29.90 in 10.0 mi NNE 4.6 mph - N/A   Clear
11:35 PM 75.2 °F - 73.4 °F 94% 29.90 in 10.0 mi NNE 4.6 mph - N/A   Clear
11:50 PM 73.4 °F - 71.6 °F 94% 29.90 in 10.0 mi North 5.8 mph - N/A   Clear